Weather History for Auburn-Lewiston, ME

Change the Weather History Date:

Friday, February 28, 2014

  Actual Average Record
Temperature  
Mean Temperature 10 °F -  
Max Temperature 19 °F 33 °F 46 °F (1998)
Min Temperature 1 °F 17 °F 0 °F (2003)
Degree Days  
Heating Degree Days 55    
Moisture  
Dew Point -5 °F    
Average Humidity 48    
Maximum Humidity 85    
Minimum Humidity 28    
Precipitation  
Precipitation 0.00 in - - ()
Sea Level Pressure  
Sea Level Pressure 30.15 in    
Wind  
Wind Speed 8 mph (NW)    
Max Wind Speed 16 mph    
Max Gust Speed 24 mph    
Visibility 10 miles    
Events      
Averages and records for this station are not official NWS values.
T = Trace of Precipitation, MM = Missing Value Source: NWS Daily Summary

Daily Weather History Graph

Daily Weather History Graph

Search for Another Location

Airport:

Trip Planner

Search our weather history database for the weather conditions in past years. The results will help you decide how hot, cold, wet, or windy it might be!

Date:

Astronomy

Feb. 28, 2014 Rise Set
Actual Time 6:19 AM EST 5:28 PM EST
Civil Twilight 5:50 AM EST 5:57 PM EST
Nautical Twilight 5:17 AM EST 6:30 PM EST
Astronomical Twilight 4:43 AM EST 7:04 PM EST
Moon 5:32 AM EST (2/28) 5:01 PM EST (2/28)
Length of Visible Light 12h 06m
Length of Day
11h 08m
Waning Crescent, 1% of the Moon is Illuminated
Feb 28
Waning Crescent
Mar 1
New
Mar 8
First Quarter
Mar 16
Full
Mar 23
Last Quarter

Hourly Weather History & Observations

Time (EST) Temp. Windchill Dew Point Humidity Pressure Visibility Wind Dir Wind Speed Gust Speed Precip Events Conditions
12:15 AM 15.8 °F 7.2 °F 10.4 °F 79% 29.75 in 10.0 mi WNW 5.8 mph - N/A   Overcast
12:35 AM 15.8 °F 6.1 °F 6.8 °F 68% 29.76 in 10.0 mi WNW 6.9 mph - N/A   Overcast
12:55 AM 15.8 °F 6.1 °F 5.0 °F 62% 29.77 in 10.0 mi WNW 6.9 mph - N/A   Mostly Cloudy
1:15 AM 15.8 °F 4.2 °F 5.0 °F 62% 29.79 in 10.0 mi NW 9.2 mph - N/A   Mostly Cloudy
1:35 AM 14.0 °F -0.2 °F 8.6 °F 79% 29.80 in 1.0 mi WNW 12.7 mph 24.2 mph N/A   Overcast
1:55 AM 12.2 °F -0.2 °F 8.6 °F 85% 29.82 in 9.0 mi WNW 9.2 mph - N/A   Overcast
2:15 AM 12.2 °F -0.2 °F 1.4 °F 62% 29.83 in 10.0 mi WNW 9.2 mph 17.3 mph N/A   Partly Cloudy
2:35 AM 12.2 °F -0.2 °F -2.2 °F 53% 29.84 in 10.0 mi West 9.2 mph - N/A   Clear
2:55 AM 12.2 °F 4.3 °F -2.2 °F 53% 29.86 in 10.0 mi NW 4.6 mph - N/A   Clear
3:15 AM 10.4 °F - -2.2 °F 57% 29.87 in 10.0 mi Calm Calm - N/A   Clear
3:35 AM 10.4 °F 4.0 °F -2.2 °F 57% 29.89 in 10.0 mi NNE 3.5 mph - N/A   Clear
3:55 AM 10.4 °F -2.4 °F -4.0 °F 52% 29.90 in 10.0 mi NW 9.2 mph - N/A   Clear
4:15 AM 10.4 °F -4.1 °F -5.8 °F 48% 29.92 in 10.0 mi NW 11.5 mph - N/A   Clear
4:35 AM 10.4 °F -4.8 °F -5.8 °F 48% 29.93 in 10.0 mi NW 12.7 mph 19.6 mph N/A   Clear
4:55 AM 10.4 °F 0.8 °F -5.8 °F 48% 29.95 in 10.0 mi WNW 5.8 mph - N/A   Clear
5:15 AM 8.6 °F -3.7 °F -5.8 °F 52% 29.97 in 10.0 mi NW 8.1 mph - N/A   Clear
5:35 AM 8.6 °F -5.5 °F -5.8 °F 52% 29.99 in 10.0 mi NNW 10.4 mph - N/A   Clear
5:55 AM 8.6 °F -4.7 °F -5.8 °F 52% 30.00 in 10.0 mi NW 9.2 mph - N/A   Clear
6:15 AM 8.6 °F -4.7 °F -5.8 °F 52% 30.02 in 10.0 mi WNW 9.2 mph - N/A   Clear
6:35 AM 8.6 °F -1.3 °F -5.8 °F 52% 30.03 in 10.0 mi NW 5.8 mph - N/A   Clear
6:55 AM 8.6 °F -3.7 °F -5.8 °F 52% 30.04 in 10.0 mi NW 8.1 mph - N/A   Clear
7:15 AM 8.6 °F -4.7 °F -5.8 °F 52% 30.06 in 10.0 mi WNW 9.2 mph - N/A   Clear
7:35 AM 8.6 °F -6.3 °F -5.8 °F 52% 30.08 in 10.0 mi WNW 11.5 mph - N/A   Clear
7:55 AM 8.6 °F -4.7 °F -5.8 °F 52% 30.10 in 10.0 mi WNW 9.2 mph 17.3 mph N/A   Clear
8:15 AM 10.4 °F -2.4 °F -5.8 °F 48% 30.11 in 10.0 mi WNW 9.2 mph 16.1 mph N/A   Clear
8:35 AM 10.4 °F -4.1 °F -4.0 °F 52% 30.12 in 10.0 mi WNW 11.5 mph 20.7 mph N/A   Clear
8:55 AM 12.2 °F -2.5 °F -5.8 °F 45% 30.14 in 10.0 mi WNW 12.7 mph - N/A   Clear
9:15 AM 12.2 °F -2.5 °F -5.8 °F 45% 30.15 in 10.0 mi West 12.7 mph - N/A   Clear
9:35 AM 14.0 °F 2.0 °F -7.6 °F 38% 30.15 in 10.0 mi WNW 9.2 mph 19.6 mph N/A   Clear
9:55 AM 14.0 °F 2.0 °F -7.6 °F 38% 30.16 in 10.0 mi NW 9.2 mph 17.3 mph N/A   Clear
10:15 AM 15.8 °F 2.1 °F -7.6 °F 35% 30.17 in 10.0 mi WNW 12.7 mph 17.3 mph N/A   Clear
10:35 AM 15.8 °F 2.1 °F -7.6 °F 35% 30.18 in 10.0 mi NW 12.7 mph - N/A   Clear
10:55 AM 15.8 °F 0.9 °F -7.6 °F 35% 30.19 in 10.0 mi NW 15.0 mph 19.6 mph N/A   Clear
11:15 AM 17.6 °F 3.2 °F -9.4 °F 30% 30.20 in 10.0 mi NW 15.0 mph 19.6 mph N/A   Clear
11:35 AM 17.6 °F 5.7 °F -9.4 °F 30% 30.20 in 10.0 mi NW 10.4 mph 18.4 mph N/A   Clear
11:55 AM 17.6 °F 5.7 °F -7.6 °F 32% 30.20 in 10.0 mi NNW 10.4 mph 17.3 mph N/A   Clear
12:15 PM 17.6 °F 5.7 °F -7.6 °F 32% 30.21 in 10.0 mi NW 10.4 mph - N/A   Clear
12:35 PM 17.6 °F 3.2 °F -7.6 °F 32% 30.20 in 10.0 mi NW 15.0 mph 20.7 mph N/A   Clear
12:55 PM 17.6 °F 5.0 °F -7.6 °F 32% 30.21 in 10.0 mi NW 11.5 mph - N/A   Clear
1:15 PM 17.6 °F 3.2 °F -7.6 °F 32% 30.21 in 10.0 mi NNW 15.0 mph 20.7 mph N/A   Clear
1:35 PM 17.6 °F 6.4 °F -7.6 °F 32% 30.21 in 10.0 mi North 9.2 mph - N/A   Clear
1:55 PM 17.6 °F 2.7 °F -7.6 °F 32% 30.22 in 10.0 mi NW 16.1 mph - N/A   Clear
2:15 PM 17.6 °F 4.3 °F -7.6 °F 32% 30.23 in 10.0 mi WNW 12.7 mph - N/A   Clear
2:35 PM 19.4 °F 6.6 °F -7.6 °F 30% 30.24 in 10.0 mi NW 12.7 mph 18.4 mph N/A   Clear
2:55 PM 19.4 °F 7.2 °F -7.6 °F 30% 30.25 in 10.0 mi NW 11.5 mph 19.6 mph N/A   Clear
3:15 PM 19.4 °F 6.0 °F -7.6 °F 30% 30.25 in 10.0 mi WNW 13.8 mph 18.4 mph N/A   Clear
3:35 PM 19.4 °F 9.5 °F -9.4 °F 28% 30.26 in 10.0 mi WNW 8.1 mph - N/A   Clear
3:55 PM 19.4 °F 6.6 °F -7.6 °F 30% 30.27 in 10.0 mi NW 12.7 mph 16.1 mph N/A   Clear
4:15 PM 19.4 °F 14.3 °F -7.6 °F 30% 30.27 in 10.0 mi WNW 3.5 mph - N/A   Clear
4:35 PM 19.4 °F 10.4 °F -7.6 °F 30% 30.28 in 10.0 mi NW 6.9 mph - N/A   Clear
4:55 PM 17.6 °F 10.7 °F -7.6 °F 32% 30.29 in 10.0 mi WNW 4.6 mph - N/A   Clear
5:15 PM 17.6 °F 9.3 °F -7.6 °F 32% 30.30 in 10.0 mi NW 5.8 mph - N/A   Clear
5:35 PM 17.6 °F 10.7 °F -7.6 °F 32% 30.30 in 10.0 mi NNW 4.6 mph - N/A   Clear
5:55 PM 17.6 °F 10.7 °F -9.4 °F 30% 30.31 in 10.0 mi North 4.6 mph - N/A   Clear
6:15 PM 17.6 °F 12.3 °F -7.6 °F 32% 30.32 in 10.0 mi NNW 3.5 mph - N/A   Clear
6:35 PM 15.8 °F - -7.6 °F 35% 30.33 in 10.0 mi Calm Calm - N/A   Clear
6:55 PM 15.8 °F - -7.6 °F 35% 30.33 in 10.0 mi Calm Calm - N/A   Clear
7:15 PM 10.4 °F - -7.6 °F 44% 30.34 in 10.0 mi Calm Calm - N/A   Clear
7:35 PM 10.4 °F - -2.2 °F 57% 30.34 in 10.0 mi Calm Calm - N/A   Clear
7:55 PM 10.4 °F - -5.8 °F 48% 30.35 in 10.0 mi Calm Calm - N/A   Clear
8:15 PM 8.6 °F - -5.8 °F 52% 30.36 in 10.0 mi Calm Calm - N/A   Clear
8:35 PM 8.6 °F - -5.8 °F 52% 30.37 in 10.0 mi Calm Calm - N/A   Clear
8:55 PM 6.8 °F - -7.6 °F 52% 30.37 in 10.0 mi Calm Calm - N/A   Clear
9:15 PM 6.8 °F - -4.0 °F 61% 30.39 in 10.0 mi Calm Calm - N/A   Clear
9:35 PM 5.0 °F - -5.8 °F 61% 30.39 in 10.0 mi Calm Calm - N/A   Clear
9:55 PM 3.2 °F - -5.8 °F 66% 30.39 in 10.0 mi Calm Calm - N/A   Clear
10:15 PM 3.2 °F - -5.8 °F 66% 30.39 in 10.0 mi Calm Calm - N/A   Clear
10:35 PM 1.4 °F - -5.8 °F 72% 30.40 in 10.0 mi Calm Calm - N/A   Clear
10:55 PM 3.2 °F - -4.0 °F 72% 30.40 in 10.0 mi Calm Calm - N/A   Clear
11:15 PM 1.4 °F - -5.8 °F 72% 30.40 in 10.0 mi Calm Calm - N/A   Clear
11:35 PM 1.4 °F - -5.8 °F 72% 30.40 in 10.0 mi Calm Calm - N/A   Clear
11:55 PM 1.4 °F - -5.8 °F 72% 30.40 in 10.0 mi Calm Calm - N/A   Clear